Find Starlink 37420

NORAD ID: 69511 Int'l Des: 2026-133 Owner: SPXS Country: US Constellation: starlink operational
LEOCIRCULAR

Current View

Loading 3D Globe...

About Starlink 37420

Starlink 37420 (NORAD 69511) is a starlink constellation satellite (v2 mini) launched Jun 11, 2026 by SPXS of US. It operates in LEO, CIRCULAR orbit with a mass of 575.00 kg.

Upcoming Passes

Passes for default location (London). Set your location on the main map for personalized predictions.

Altitude History

Loading altitude history...

Two-Line Element Set

1 69511U 26133D 26208.79258311 .00023925 00000-0 73623-3 0 9996
2 69511 53.1604 125.5597 0001478 117.2322 242.8831 15.33558440 8368
Epoch: Jul 27, 2026 • Age: 12 hours

Current Status

Altitude 469.7 km
Apogee / Perigee N/A
Velocity 7.63 km/s
Sub-Earth Point -17.33°S, 91.95°W
Launch Date Jun 11, 2026
Age 0.1 years
Type internet

Technical Details

Classification Payload
Mass 575.00 kg
Dry Mass 530.00 kg
Total Mass 575.00 kg
Length 0.30 m
Diameter 4.10 m
Span 29.00 m
Shape Box + pan
Manufacturer SPXS
Bus Type Starlink V2MO
Phase Status In Orbit
Owner/State SPXS/US

Most Searched